Weather History for KGLS - November, 2012

Change the Weather History Date:

Thursday, November 8, 2012

  Actual Average Record
Temperature  
Mean Temperature 71 °F 68 °F  
Max Temperature 77 °F 74 °F 82 °F (1900)
Min Temperature 64 °F 61 °F 39 °F (1938)
Degree Days  
Heating Degree Days 0 2  
Month to date heating degree days 0 9  
Since 1 July heating degree days 15 18  
Cooling Degree Days 6 4  
Month to date cooling degree days 61 39  
Year to date cooling degree days 3810 3231  
Growing Degree Days 20 (Base 50)    
Moisture  
Dew Point 60 °F    
Average Humidity 71    
Maximum Humidity 87    
Minimum Humidity 54    
Precipitation  
Precipitation 0.00 in 0.16 in 2.40 in (1888)
Month to date precipitation 0.24 1.19  
Year to date precipitation 43.72 43.92  
Snow  
Snow 0.00 in - 0.00 in (2002)
Month to date snowfall 0.0  
Since 1 July snowfall 0.0  
Since 1 September snowfall 0.0  
Snow Depth 0.00 in    
Sea Level Pressure  
Sea Level Pressure 30.14 in    
Wind  
Wind Speed 12 mph (ESE)    
Max Wind Speed 21 mph    
Max Gust Speed 25 mph    
Visibility 10 miles    
Events      
T = Trace of Precipitation, MM = Missing Value Source: NWS Daily Summary

Daily Weather History Graph

Daily Weather History Graph

Search for Another Location

Airport or City:

Trip Planner

Search our weather history database for the weather conditions in past years. The results will help you decide how hot, cold, wet, or windy it might be!

Date:

Astronomy

Nov. 08, 2012 Rise Set
Actual Time 6:38 AM CST 5:28 PM CST
Civil Twilight 6:13 AM CST 5:52 PM CST
Nautical Twilight 5:44 AM CST 6:21 PM CST
Astronomical Twilight 5:16 AM CST 6:49 PM CST
Moon 1:00 AM CST (11/8) 1:46 PM CST (11/8)
Length of Visible Light 11h 39m
Length of Day
10h 50m
Waning Crescent, 32% of the Moon is Illuminated
Nov 8
Waning Crescent
Nov 13
New
Nov 20
First Quarter
Nov 28
Full
Dec 6
Last Quarter

Hourly Weather History & Observations

Time (CST) Temp. Dew Point Humidity Pressure Visibility Wind Dir Wind Speed Gust Speed Precip Events Conditions
12:52 AM 64.0 °F 57.9 °F 80% 30.13 in 10.0 mi NE 4.6 mph - N/A   Clear
1:52 AM 64.0 °F 60.1 °F 87% 30.13 in 4.0 mi ENE 4.6 mph - N/A   Clear
2:52 AM 64.9 °F 60.1 °F 84% 30.13 in 9.0 mi East 3.5 mph - N/A   Clear
3:52 AM 64.9 °F 60.1 °F 84% 30.12 in 10.0 mi East 4.6 mph - N/A   Clear
4:52 AM 66.0 °F 59.0 °F 78% 30.13 in 10.0 mi East 5.8 mph - N/A   Clear
5:52 AM 68.0 °F 57.9 °F 70% 30.14 in 10.0 mi ESE 8.1 mph - N/A   Clear
6:52 AM 68.0 °F 59.0 °F 73% 30.15 in 10.0 mi ESE 8.1 mph - N/A   Clear
7:52 AM 71.1 °F 60.1 °F 68% 30.17 in 10.0 mi ESE 9.2 mph - N/A   Clear
8:52 AM 73.9 °F 60.1 °F 62% 30.19 in 10.0 mi SE 12.7 mph - N/A   Clear
9:52 AM 75.0 °F 59.0 °F 57% 30.21 in 10.0 mi SE 13.8 mph - N/A   Clear
10:52 AM 75.9 °F 59.0 °F 56% 30.20 in 10.0 mi SE 12.7 mph - N/A   Clear
11:52 AM 77.0 °F 59.0 °F 54% 30.18 in 10.0 mi SE 15.0 mph - N/A   Clear
12:52 PM 75.9 °F 59.0 °F 56% 30.15 in 10.0 mi ESE 17.3 mph - N/A   Clear
1:52 PM 75.9 °F 60.1 °F 58% 30.13 in 10.0 mi SE 15.0 mph - N/A   Clear
2:52 PM 75.9 °F 60.1 °F 58% 30.12 in 10.0 mi SE 13.8 mph - N/A   Clear
3:52 PM 75.0 °F 60.1 °F 60% 30.12 in 10.0 mi SE 15.0 mph - N/A   Clear
4:52 PM 73.0 °F 60.1 °F 64% 30.12 in 10.0 mi SE 13.8 mph - N/A   Clear
5:52 PM 71.1 °F 60.1 °F 68% 30.12 in 10.0 mi SE 13.8 mph - N/A   Clear
6:52 PM 71.1 °F 61.0 °F 70% 30.13 in 10.0 mi SE 13.8 mph - N/A   Clear
7:52 PM 71.1 °F 60.1 °F 68% 30.14 in 10.0 mi SE 12.7 mph - N/A   Clear
8:52 PM 71.1 °F 60.1 °F 68% 30.15 in 10.0 mi SSE 17.3 mph - N/A   Clear
9:52 PM 71.1 °F 61.0 °F 70% 30.14 in 10.0 mi SSE 17.3 mph - N/A   Clear
10:52 PM 71.1 °F 61.0 °F 70% 30.13 in 10.0 mi SSE 17.3 mph - N/A   Clear
11:52 PM 71.1 °F 61.0 °F 70% 30.12 in 10.0 mi SSE 17.3 mph - N/A   Clear